Weather History for Mansfield, OH

Change the Weather History Date:

Wednesday, January 23, 2013

  Actual Average Record
Temperature  
Mean Temperature 9 °F 25 °F  
Max Temperature 16 °F 33 °F 63 °F (1967)
Min Temperature 1 °F 18 °F -19 °F (1963)
Degree Days  
Heating Degree Days 56 40  
Month to date heating degree days 826 912  
Since 1 July heating degree days 3028 3289  
Cooling Degree Days 0 0  
Month to date cooling degree days 0 0  
Year to date cooling degree days 0 0  
Moisture  
Dew Point 4 °F    
Average Humidity 71    
Maximum Humidity 88    
Minimum Humidity 53    
Precipitation  
Precipitation T in 0.08 in 0.73 in (1965)
Month to date precipitation 1.11 2.18  
Year to date precipitation 1.11 2.18  
Snow  
Snow T in 0.40 in - ()
Month to date snowfall 1.1 9.9  
Since 1 July snowfall 13.9 23.1  
Snow Depth 1.00 in    
Sea Level Pressure  
Sea Level Pressure 30.20 in    
Wind  
Wind Speed 6 mph (SW)    
Max Wind Speed 15 mph    
Max Gust Speed 21 mph    
Visibility 8 miles    
Events Snow    
T = Trace of Precipitation, MM = Missing Value Source: NWS Daily Summary

Daily Weather History Graph

Daily Weather History Graph

Search for Another Location

Airport:

Trip Planner

Search our weather history database for the weather conditions in past years. The results will help you decide how hot, cold, wet, or windy it might be!

Date:

Astronomy

Jan. 23, 2013 Rise Set
Actual Time 7:47 AM EST 5:36 PM EST
Civil Twilight 7:18 AM EST 6:06 PM EST
Nautical Twilight 6:44 AM EST 6:39 PM EST
Astronomical Twilight 6:12 AM EST 7:12 PM EST
Moon 2:46 PM EST (1/23) 4:58 AM EST (1/23)
Length of Visible Light 10h 48m
Length of Day
9h 49m
Waxing Gibbous, 89% of the Moon is Illuminated
Jan 23
Waxing Gibbous
Jan 26
Full
Feb 3
Last Quarter
Feb 10
New
Feb 17
First Quarter

Hourly Weather History & Observations

Time (EST) Temp. Windchill Dew Point Humidity Pressure Visibility Wind Dir Wind Speed Gust Speed Precip Events Conditions
12:52 AM 1.9 °F -5.6 °F -2.9 °F 80% 30.32 in 10.0 mi SW 3.5 mph - N/A   Clear
1:52 AM 3.0 °F -6.4 °F -2.9 °F 76% 30.31 in 10.0 mi WSW 4.6 mph - N/A   Clear
2:52 AM 3.9 °F -5.3 °F -2.9 °F 73% 30.32 in 10.0 mi WSW 4.6 mph - N/A   Clear
3:52 AM 3.0 °F -4.4 °F -2.9 °F 76% 30.32 in 10.0 mi SW 3.5 mph - N/A   Clear
4:52 AM 1.9 °F -5.6 °F -2.9 °F 80% 30.32 in 10.0 mi SW 3.5 mph - N/A   Clear
5:52 AM 1.9 °F -7.6 °F -2.9 °F 80% 30.32 in 10.0 mi SW 4.6 mph - N/A   Mostly Cloudy
6:31 AM 3.2 °F -6.2 °F -2.2 °F 78% 30.22 in 10.0 mi SW 4.6 mph - N/A   Mostly Cloudy
6:52 AM 5.0 °F -4.1 °F -0.9 °F 76% 30.32 in 10.0 mi SW 4.6 mph - N/A   Overcast
7:19 AM 5.0 °F -5.6 °F -0.4 °F 78% 30.23 in 10.0 mi SSW 5.8 mph - N/A   Overcast
7:52 AM 6.1 °F -5.6 °F -0.0 °F 76% 30.32 in 10.0 mi SW 6.9 mph - N/A   Overcast
8:52 AM 7.0 °F -4.5 °F -0.0 °F 73% 30.32 in 10.0 mi WSW 6.9 mph - N/A   Overcast
9:52 AM 9.0 °F -2.2 °F 1.0 °F 70% 30.32 in 10.0 mi WSW 6.9 mph - N/A   Overcast
10:52 AM 10.9 °F 0.2 °F 1.9 °F 67% 30.31 in 10.0 mi SW 6.9 mph - N/A   Overcast
11:52 AM 12.9 °F 0.7 °F 1.9 °F 62% 30.29 in 10.0 mi SW 9.2 mph - N/A   Overcast
12:52 PM 14.0 °F 1.2 °F 1.0 °F 56% 30.25 in 10.0 mi SSW 10.4 mph - N/A   Overcast
1:52 PM 15.1 °F 1.8 °F 1.0 °F 54% 30.22 in 10.0 mi SW 11.5 mph - N/A   Overcast
2:52 PM 16.0 °F 3.6 °F 1.9 °F 54% 30.20 in 10.0 mi WSW 10.4 mph 18.4 mph N/A   Overcast
3:52 PM 16.0 °F 4.4 °F 3.9 °F 59% 30.19 in 9.0 mi SW 9.2 mph - N/A   Overcast
4:52 PM 15.1 °F 5.2 °F 7.0 °F 70% 30.17 in 5.0 mi SW 6.9 mph - N/A   Haze
5:52 PM 15.1 °F 6.4 °F 8.1 °F 74% 30.15 in 6.0 mi SW 5.8 mph - N/A   Haze
6:52 PM 15.1 °F 6.4 °F 10.0 °F 80% 30.14 in 4.0 mi SSW 5.8 mph - 0.00 in   Haze
7:52 PM 15.1 °F 6.4 °F 9.0 °F 77% 30.13 in 10.0 mi SW 5.8 mph - N/A   Overcast
8:52 PM 15.1 °F 9.4 °F 9.0 °F 77% 30.12 in 10.0 mi SW 3.5 mph - N/A   Overcast
9:27 PM 15.8 °F 10.2 °F 10.4 °F 79% 30.04 in 4.0 mi SW 3.5 mph - 0.00 in Snow Light Snow
9:52 PM 15.1 °F - 10.9 °F 84% 30.11 in 4.0 mi Calm Calm - 0.00 in Snow Light Snow
10:08 PM 15.8 °F - 10.4 °F 79% 30.04 in 2.5 mi Calm Calm - 0.00 in Snow Light Snow
10:52 PM 15.1 °F - 12.0 °F 88% 30.10 in 2.0 mi Calm Calm - 0.00 in Snow Light Snow
11:05 PM 15.8 °F - 12.2 °F 86% 30.02 in 3.0 mi Calm Calm - 0.00 in Snow Light Snow
11:25 PM 15.8 °F - 12.2 °F 86% 30.02 in 2.0 mi Calm Calm - 0.00 in Snow Light Snow
11:31 PM 15.8 °F - 12.2 °F 86% 30.02 in 1.8 mi Calm Calm - 0.00 in Snow Light Snow
11:41 PM 15.8 °F - 12.2 °F 86% 30.02 in 3.0 mi Calm Calm - 0.00 in Snow Light Snow
11:52 PM 15.1 °F - 12.0 °F 88% 30.09 in 3.0 mi Calm Calm - 0.00 in Snow Light Snow